Location: Lahas
(43.5538°N, 0.8906°E)
Time: 10:17:00
(UTC+00:00)

Cosmos 1455 Rocket - Pass Details

Date: 15 May 2026
Orbit: 597 x 623 km, 82.5° (Epoch: 5 June)

Event Time Altitude Azimuth Distance (km) Brightness Sun altitude
Rises 19:42:15 0° 177° (S) 2,884 6.1 -5.2°
Reaches altitude 10° 19:44:30 10° 174° (S) 1,980 5.3 -5.5°
Maximum altitude 19:48:49 60° 95° (E) 709 3.1 -6.2°
Drops below altitude 10° 19:53:08 10° 16° (NNE) 1,983 5.9 -6.8°
Sets 19:55:23 0° 12° (NNE) 2,889 6.8 -7.2°
